Погода в Владимире

Хотите узнать прогноз погоды в Владимире? Тогда Вам сюда: Погода в Владимире

Поиск расширенной информации на нашем сайте:

Полезная информация:

Новости сайта



02.01.2020
Опубликован Долгосрочный прогноз погоды по городам России и ближнего зарубежья на январь 2020 года.
Карты: Прогноз на январь и февраль 2020 года, Сравнение прогнозируемой аномалии приземной температуры воздуха на январь 2020 года по разным моделям.




Погода в Владимире - сегодня

Время (UTC), дата Ветер
(°,м/с) 
Видим.   Явления Облачность Т
(°С)
Тd
(°С)
f(%) Тe
(°С)
Pmin
(гПа)
dP
(гПа)
Po
(мм)
O2
(г/м3)
Тmin Tmax R s Состояние
почвы
09 16.01.21 350 (С) 4{10}  1000 м  снег  10/10 100 м 
[Frnb|Ns]
-13.4 -15.3 86 -18  1002.1  -0.6  735  313           
12 16.01.21 340 (С) 2000 м  слаб. снег  10/10 150 м 
[Frnb|Ns]
-13.3 -15.2 86 -19  1001.5  -0.6  734  312           
15 16.01.21 340 (С) 4000 м  слаб. снег  10/10 180 м 
[Frnb|Ns]
-14.3 -16.2 85 -18  1002.3  0.8  735  314    -13.2     
18 16.01.21 330 (СЗ) 4000 м  слаб. снег  10/10 330 м 
[Frnb|Ns]
-15.6 -17.7 84 -18  1003.6  1.1  736  316           
21 16.01.21 330 (СЗ) 4000 м  слаб. снег{дождь}  10/10 420 м 
[Ns]
-16.2 -18.5 82 -20  1005.1  1.4  737  317           
00 17.01.21 300 (СЗ) 4000 м  слаб. снег  10/10 420 м 
[Frnb|Ns]
-16.9 -19.2 82 -22  1006.4  1.2  738  318           
03 17.01.21 330 (СЗ) 10 км  слаб. снег  10/10 420 м 
[Frnb|Ns]
-20.9 -23.6 79 -28  1009.2  2.3  740  324  -20.9    0.8  35  равномерный
сухой снег
100% 
06 17.01.21 330 (СЗ) 10 км  {снег}  10/8 420 м средняя 
[Frnb|Ac As]
-22.1 -24.9 78 -27  1012  2.6  742  327  -22.1         
09 17.01.21 350 (С) 10 км    ясно 
-20.2 -23.2 77 -25  1014.1  2.3  743  325           
12 17.01.21 340 (С) 10 км    ясно 
-19.7 -22.7 77 -22  1015.5  1.4  744  325           
15 17.01.21 230 (ЮЗ) 10 км    ясно 
-23.8 -26.4 79 -24  1017.7  1.7  746  331    -19.3  0.0     
18 17.01.21 320 (СЗ) 10 км    ясно 
-24.2 -27 78 -25  1019.2  1.5  747  332           
21 17.01.21 040 (СВ) 10 км    ясно 
-24.2 -27 78 -25  1019.3  747  332           
00 18.01.21 тихо ()   н/о    н/о 
-26.5 -29.4 76 -27  1020.1  0.6  747  335           
03 18.01.21 тихо ()   10 км  слаб. снег  10/6 210 м средняя 
[Frnb|Ac As]
-24.5 -27.4 77 -25  1020.4  0.5  748  333  -27.7    0.0  35  равномерный
сухой снег
100% 
06 18.01.21 тихо ()   2000 м  дымка{снег}  10/8 100 м средняя 
[St|Ac As]
-22.8 -25.5 79 -23  1020.2  0.1  747  330           
09 18.01.21 тихо ()   2000 м  дымка  9/6 150 м средняя 
[St|Ac und]
-18.8 -21.4 80 -19  1020.9  1.1  748  325           
12 18.01.21 тихо ()   10 км    9/3 300 м верхняя 
[St|Ci sp]
-19.9 -22.3 81 -20  1020  -0.9  748  327           
15 18.01.21 300 (СЗ) 4000 м  слаб. снег  10/8 210 м средняя 
[Frnb|As op]
-21.6 -24.2 79 -22  1020.2  748  329    -18.4  0.0     
18 18.01.21 тихо ()   4000 м  слаб. снег  10/8 120 м средняя 
[Frnb|Ac As]
-21.4 -24.1 79 -21  1019.7  -0.4  747  328           
21 18.01.21 тихо ()   4000 м  слаб. снег  10/8 120 м средняя 
[Frnb|Ac As]
-22.6 -25.4 78 -23  1019.7  0.1  747  330           
00 19.01.21 тихо ()   н/о    н/о 
-21.2 -23.8 79 -21  1019  -0.6  747  328           
03 19.01.21 230 (ЮЗ) 4000 м  слаб. снег  10/8 120 м средняя 
[Frnb|Ac As]
-21 -23.5 80 -21  1018.4  -0.6  746  327  -22.7    0.0  35  равномерный
сухой снег
100% 
06 19.01.21 тихо ()   4000 м  слаб. снег  10/8 150 м средняя 
[Frnb|Ac As]
-20.3 -22.7 81 -20  1018.6  0.3  746  327           
09 19.01.21 320 (СЗ) 4000 м  слаб. снег  10/8 450 м средняя 
[Frnb|Ac As]
-17.2 -19.4 83 -17  1017.7  0.3  746  322           
Время (UTC), дата Ветер
(°,м/с) 
Видим.   Явления Облачность Т
(°С)
Тd
(°С)
f(%) Тe
(°С)
Pmin
(гПа)
dP
(гПа)
Po
(мм)
O2
(г/м3)
Тmin Tmax R s Состояние
почвы

Для получения пояснительной информации подведите курсор к названию столбца.

ПОГОДА в Владимире - архив

Всё, что Вы хотите узнать о погоде в Владимире - удобно и подробно!

Выберите нужную дату (начиная с 1 января 2019* года) и нажмите кнопку "Найти".
Будут отображены архивные сводки погоды по пункту Владимир, начиная с указанной даты.


Отображать данные в формате CSV (для использования в таблицах Excel)


Внимание! Наш архив погоды предназначен исключительно для личного некоммерческого использования в познавательных целях. Если Вам необходимы официальные справки о состоянии погоды (для производственных, юридических, коммерческих и т.п. целей), обращайтесь в органы Росгидромета.

*Примечание: данная дата относится к архиву по метеостанциям СССР (Россия, СНГ, Балтия).
Архив по метеостанциям Зарубежной Европы и Азии (кроме Китая) хранится 10 дней, по другим регионам земного шара (Китай, Африка, Америка, Австралия, Океания) - 1 день.

Владимир - район местоположения метеостанции


Название, широта, долгота, высота метеостанции:
Владимир 56.1°ш. 40.3°д. 172 м над ур. моря [Российская Федерация]

Дополнительная информация

В oтличие oт бoльшинства пoгoдных сайтoв мы публикуем пoдрoбную метеoинфoрмацию в детальнoм прoфессиoнальнoм фoрмате.

Характеристики температуры и влажнoсти вoздуха измеряются на высoте 2 м в тени вдали oт зданий и деревьев.
Скoрoсть ветра измеряется на высoте 10 м (на урoвне рoста челoвека скoрoсть ветра ниже в 1.5-2 раза). Если метеoстанция нахoдится в гoрoде или в лесу, тo скoрoсть ветра занижена на 2-4 м/с пo сравнению с oткрытым местoм. Скoрoсть ветра над акватoриями крупных рек и oзёр, а также на вершинах хoлмoв на 2-5 м/с выше, чем в oбычных услoвиях.
Атмoсфернoе давление в разных тoчках местнoсти мoжет значительнo oтличаться oт давления на метеoстанции, в зависимoсти oт услoвий рельефа (при пoдъёме на 10 м давление пoнижается примернo на 1 мм рт.ст.).